Regional Weather Roundup
Issued by NWS

Home | Current Version | Previous Version | Text Only | Print | Product List | Glossary Off
Versions: 1 2 3 4 5 6 7 8 9 10 11 12 13 14 15 16 17 18 19 20 21 22 23 24 25 26 27 28 29 30 31 32 33 34 35 36 37 38 39 40 41 42 43 44 45 46 47 48 49 50

000
ASUS45 KBOU 302110
RWRCO

WEATHER ROUNDUP FOR COLORADO
NATIONAL WEATHER SERVICE DENVER/BOULDER CO
300 PM MDT FRI SEP 30 2016

NOTE: "FAIR" INDICATES FEW OR NO CLOUDS BELOW 12000 FEET WITH NO
SIGNIFICANT WEATHER AND/OR OBSTRUCTIONS TO VISIBILITY.

COZ001>005-013-030-031-302200-
...NORTHWEST COLORADO...

CITY           SKY/WX    TMP DP  RH WIND       PRES   REMARKS
CRAIG          FAIR      71  43  36 SW6       30.25F
HAYDEN         FAIR      64  43  45 CALM      30.27F
MEEKER         PTSUNNY   66  45  46 VRB3      30.27F
MOUNT WERNER   NOT AVBL
STEAMBOAT SPGS FAIR      65  46  50 S6        30.28F
WALDEN           N/A     61  36  39 SW7       30.36F
$$

COZ006>008-011-302200-
...WEST CENTRAL VALLEYS...

CITY           SKY/WX    TMP DP  RH WIND       PRES   REMARKS
GRAND JUNCTION FAIR      71  52  50 W7        30.21F
MONTROSE       FAIR      67  48  50 NW6       30.27F
EAGLE          PTSUNNY   64  46  52 CALM      30.29F
RIFLE          FAIR      72  46  39 N8        30.24F
DELTA          NOT AVBL
NUCLA          FAIR      70  50  49 NW6       30.31F
$$

COZ017>023-064>068-302200-
...SOUTHWEST COLORADO...

CITY           SKY/WX    TMP DP  RH WIND       PRES   REMARKS
DURANGO        FAIR      68  46  45 VRB6      30.27F
CORTEZ         FAIR      70  51  51 W8        30.26F
PAGOSA SPRINGS FAIR      69  38  31 SW12      30.31F
TELLURIDE      TSTM      53  44  71 CALM      30.45S
WOLF CREEK PAS CLOUDY    50  36  57 SW16G26   30.59S
$$

COZ009-010-012-014-032>034-037-058>063-302200-
...CENTRAL COLORADO...

CITY           SKY/WX    TMP DP  RH WIND       PRES   REMARKS
ASPEN          PTSUNNY   64  40  41 N8        30.33F
BUENA VISTA    PTSUNNY   64  34  33 NW15G21   30.31F
COPPER MTN     CLOUDY    45  36  70 W6        30.58F
BERTHOUD PASS  CLOUDY    36  25  64 N17       30.58F
COTTONWOOD PAS CLOUDY    64  32  29 W6        30.43S
GUNNISON       FAIR      64  41  42 SW6       30.33F
KREMMLING      CLOUDY    59  41  51 N3        30.36S
LEADVILLE      CLOUDY    53  33  46 NW14G23   30.43F
MONARCH PASS   FAIR      46  36  66 W22       30.66F
SALIDA         FAIR      71  38  29 N7        30.33F
SUNLIGHT       PTSUNNY   50  43  76 NW5       30.54F
WILKERSON PASS CLOUDY    48  34  57 CALM      30.54F
$$

COZ069>075-302200-
...SAN LUIS VALLEY/SANGRE DE CRISTO MOUNTAINS...

CITY           SKY/WX    TMP DP  RH WIND       PRES   REMARKS
ALAMOSA        FAIR      70  36  28 MISG      30.28F
LA VETA PASS   FAIR      63  34  34 MISG      30.45F
SAGUACHE       PTSUNNY   70  37  30 W18       30.31F
$$

COZ035-036-038>040-302200-
...NORTHERN COLORADO FRONT RANGE...

CITY           SKY/WX    TMP DP  RH WIND       PRES   REMARKS
DENVER INTL AP PTSUNNY   71  44  37 N10       30.20F
DMNS CITY PARK   N/A     71  44  37 N3        30.19F
AURORA         PTSUNNY   70  44  39 N6        30.21F
FRONT RANGE AP PTSUNNY   73  45  35 N12G23    30.21F
ERIE MUNI ARPT FAIR      74  41  30 CALM      30.18F
BOULDER MUN AP FAIR      73  45  35 SE3       30.18F
CENTENNIAL     PTSUNNY   70  44  39 N12       30.22F
BROOMFIELD     NOT AVBL
FORT COLLINS   FAIR      73  46  38 E3        30.16F
LONGMONT       FAIR      76  45  33 S6        30.19F
$$

COZ041-046-047-076>085-087-088-302200-
...PIKES PEAK/PALMER DIVIDE AND SOUTHERN FOOTHILLS...

CITY           SKY/WX    TMP DP  RH WIND       PRES   REMARKS
COLO. SPRINGS  PTSUNNY   73  40  30 N9        30.22F
A. F. ACADEMY  CLOUDY    69  41  36 N13G18    30.23F
SCHRIEVER AFB  NOT AVBL
ELLICOTT       NOT AVBL
FALCON         FAIR      69  38  33 N13G21    30.27F
FORT CARSON    NOT AVBL
LIMON          FAIR      75  41  29 N12       30.17F
MONUMENT HILL  FAIR      63  41  45 N14G21    30.30S
TRINIDAD       FAIR      79  35  20 VRB3      30.14F
$$

COZ042>045-048>051-090-091-302200-
...NORTHEAST COLORADO...

CITY           SKY/WX    TMP DP  RH WIND       PRES   REMARKS
GREELEY ARPT   FAIR      70  52  52 E6        30.17F
AKRON          FAIR      71  42  35 MISG      30.16F
BURLINGTON     FAIR      72  45  37 SE15      30.14F
WRAY           NOT AVBL
STERLING       FAIR      73  45  35 NE7       30.12F
HOLYOKE        FAIR      73  45  35 SE14G24   30.15S
FORT MORGAN    FAIR      75  42  31 S6        30.15F
$$

COZ086-089-092>099-302200-
...SOUTHEAST COLORADO...

CITY           SKY/WX    TMP DP  RH WIND       PRES   REMARKS
PUEBLO         PTSUNNY   81  42  25 E8        30.09F
LA JUNTA       FAIR      78  43  28 NE8       30.09F
LAMAR          FAIR      86  42  21 VRB3      30.04F
SPRINGFIELD      N/A     76  46  34 S13       30.11S
$$



USA.gov is the U.S. government's official web portal to all federal, state and local government web resources and services.